FW5398 Weather Reports


time (UTC)temp
C
wind
direction
speed
KPH
gust
KPH
rain 1hr
cm
rain 24hr
cm
rain mn
cm
humidity
%
barometer
mb
20260504120107 1 264 32.2 45.1 0.05 1.07 0.48 85 990.3
20260504081557 2 262 20.9 32.2 0.13 0.97 0.38 85 977.7
20260504050025 4 344 0.0 3.2 0.00 0.58 0.00 83 975.2
20260504044522 4 344 1.6 6.4 0.00 0.58 0.00 82 975.5
20260504043021 4 347 1.6 6.4 0.00 0.58 0.00 82 975.8
20260504041518 4 18 3.2 4.8 0.00 0.58 0.00 82 976.0
20260504040016 4 220 3.2 12.9 0.00 0.58 0.00 82 976.4
20260504034513 5 145 4.8 27.4 0.00 0.58 0.00 81 976.5
20260504033012 5 163 9.7 27.4 0.00 0.58 0.00 82 977.0
20260504031512 5 155 11.3 27.4 0.00 0.58 0.00 81 977.4
20260504030006 5 170 3.2 25.7 0.00 0.58 0.00 81 977.9
20260504024504 5 129 8.0 27.4 0.00 0.58 0.58 81 978.2
20260504023004 5 16 8.0 22.5 0.00 0.58 0.58 81 977.9
20260504021600 5 122 8.0 32.2 0.00 0.58 0.58 81 978.7
20260504020106 5 121 9.7 37.0 0.00 0.58 0.58 81 979.5
20260504014605 5 218 16.1 40.2 0.00 0.58 0.58 81 979.4
20260504013056 5 345 9.7 48.3 0.00 0.58 0.58 80 979.4
20260504011552 5 106 11.3 49.9 0.00 0.58 0.58 81 980.7
20260504010057 5 45 22.5 53.1 0.00 0.58 0.58 81 981.2
20260504004548 6 209 14.5 57.9 0.00 0.58 0.58 80 982.4
20260504003045 6 172 19.3 54.7 0.03 0.58 0.58 81 982.3
20260504001543 5 351 20.9 49.9 0.05 0.58 0.58 82 983.0
20260504000139 5 110 16.1 41.8 0.05 0.58 0.58 82 984.3
20260503234539 5 74 24.1 48.3 0.05 0.58 0.58 82 985.5
20260503233031 5 101 11.3 45.1 0.05 0.56 0.56 82 986.9
20260503231529 5 55 11.3 29.0 0.08 0.53 0.53 83 988.0
20260503230034 4 24 8.0 30.6 0.18 0.53 0.53 83 989.5
20260503224521 3 110 11.3 25.7 0.23 0.53 0.53 84 991.0
20260503223019 3 342 8.0 25.7 0.23 0.51 0.51 84 992.0
20260503221517 3 35 8.0 17.7 0.20 0.46 0.46 83 992.9
20260503220021 3 36 8.0 16.1 0.13 0.36 0.36 83 993.5
20260503214514 3 42 3.2 12.9 0.10 0.30 0.30 82 994.2
20260503213004 4 70 4.8 14.5 0.08 0.28 0.28 82 994.5
20260503211504 5 10 8.0 0.0 0.00 0.00 0.25 83 994.4
20260503210001 5 353 4.8 17.7 0.10 0.23 0.23 83 995.4
20260503204601 5 31 6.4 30.6 0.13 0.20 0.20 82 995.5
20260503203058 5 31 14.5 24.1 0.15 0.20 0.20 82 996.3
20260503201553 5 121 11.3 20.9 0.13 0.15 0.15 81 997.2
20260503200050 5 20 4.8 17.7 0.13 0.13 0.13 80 998.6
20260503194601 5 345 8.0 20.9 0.08 0.08 0.08 79 998.8
20260503193044 6 10 6.4 24.1 0.05 0.05 0.05 83 999.5
20260503191540 6 142 1.6 17.7 0.03 0.03 0.03 99 1000.9
20260503190042 7 159 3.2 16.1 0.00 0.00 0.00 100 1002.0
20260503184534 8 119 8.0 27.4 0.00 0.00 0.00 100 1002.9
20260503183038 8 31 8.0 17.7 0.00 0.00 0.00 100 1003.3
20260503181546 9 311 1.6 24.1 0.00 0.00 0.00 100 1004.4
20260503180040 10 114 12.9 19.3 0.00 0.00 0.00 98 1005.1
20260503174525 10 110 6.4 19.3 0.00 0.00 0.00 96 1005.1
20260503173023 10 112 8.0 16.1 0.00 0.00 0.00 95 1005.2
20260503171524 10 101 8.0 12.9 0.00 0.00 0.00 95 1006.2